Location: Sternwarte_Laufen
(47.9344°N, 12.9346°E)
Time: 13:19:18
(UTC+02:00)

Tiangong 2 - Visible Passes

Search period start: 24 June 2018 00:00
Search period end: 04 July 2018 00:00
Orbit: 385 x 396 km, 42.8° (Epoch: 24 June)

Date Brightness Start Highest point End Pass type
(mag) Time Alt. Az. Time Alt. Az. Time Alt. Az.
29 Jun 3.4 04:07:12 10° S 04:08:46 13° SSE 04:10:21 10° SE visible
01 Jul 2.9 03:49:04 15° SSW 03:50:23 19° SSE 03:52:44 10° ESE visible
02 Jul 3.4 02:53:59 13° SE 02:53:59 13° SE 02:54:51 10° ESE visible
02 Jul 2.2 04:26:35 10° SW 04:29:25 29° S 04:32:16 10° ESE visible
03 Jul 2.4 03:31:14 22° SSW 03:32:05 25° SSE 03:34:46 10° ESE visible
